Regional Weather Roundup
Issued by NWS

Home | Current Version | Previous Version | Graphics & Text | Print | Product List | Glossary On
Versions: 1 2 3 4 5 6 7 8 9 10 11 12 13 14 15 16 17 18 19 20 21 22 23 24 25 26 27 28 29 30 31 32 33 34 35 36 37 38 39 40 41 42 43 44 45 46 47 48 49 50
000
ASUS43 KLOT 062012
RWRIL

ILLINOIS REGIONAL WEATHER ROUNDUP
NATIONAL WEATHER SERVICE CHICAGO/ROMEOVILLE IL
300 PM CDT MON JUL 06 2015

NOTE: "FAIR" INDICATES FEW OR NO CLOUDS BELOW 12,000 FEET WITH NO
SIGNIFICANT WEATHER AND/OR OBSTRUCTIONS TO VISIBILITY.

* THESE STATIONS ARE NOT UNDER NWS QUALITY CONTROL. THEY ALSO MAY NOT
  REPORT WEATHER SUCH AS PRECIPITATION OR FOG.

ILZ001-002-007-009-015-016-024-062100-
NORTHWEST ILLINOIS

CITY           SKY/WX    TMP DP  RH WIND       PRES   REMARKS
MOLINE         CLOUDY    81  73  76 CALM      29.87F HX  86
STERLING*      CLOUDY    79  73  83 CALM      29.89S HX  82
SAVANNA*       DRIZZLE   75  73  91 S10       29.87S
$$

ILZ003-004-008-010-011-017-018-062100-
NORTH CENTRAL ILLINOIS

CITY           SKY/WX    TMP DP  RH WIND       PRES   REMARKS
ROCKFORD       LGT RAIN  76  71  85 S7        29.90R
FREEPORT*      LGT RAIN  73  71  92 S9        29.90F
ROCHELLE*      CLOUDY    78  73  83 S10       29.90F HX  81
DE KALB*       CLOUDY    74  70  88 SE7       29.92F
PERU*          CLOUDY    83  73  69 S9        29.90F HX  89
$$

ILZ005-006-012>014-019>023-062100-
NORTHEAST ILLINOIS

CITY           SKY/WX    TMP DP  RH WIND       PRES   REMARKS
CHICAGO-OHARE  LGT RAIN  73  69  87 VRB3      29.91F
CHICAGO-MIDWAY TSTM      76  68  76 NW13      29.93R
AURORA         CLOUDY    77  69  76 S8        29.91F
LANSING*       CLOUDY    85  67  54 S13G20    29.93S HX  88
JOLIET*        TSTM      78  70  77 N8G17     29.94R HX  80
WAUKEGAN       LGT RAIN  72  70  93 S6        29.89F
DUPAGE AIRPORT CLOUDY    72  69  90 S7        29.91S
KANKAKEE*      CLOUDY    85  73  65 S12G18    29.94F HX  91
WHEELING       LGT RAIN  73  68  84 CALM      29.93F
MORRIS*        CLOUDY    76  71  82 CALM      29.91S
ROMEOVILLE*    CLOUDY    74  68  80 NW10      29.95R
NORTHERLY ISL    N/A     85  66  53 SW13        N/A  HX  87
$$

LMZ740>746-062100-
SOUTHERN LAKE MICHIGAN

STATION/POSITION SKY/WX   TEMP    WIND        PRES    VSBY  WAVE
                          AIR SEA DIR/SP/G                  HT/PER
                          (F)     (DEG/KT/KT) (MB)    (MI)  (FT/S)
HARRISON CRIB              78     180/ 15/ 17   N/A
BURNHAM HARBOR             80     290/ 13/ 18   N/A
CALUMET HARBOR             84     190/  8/ 15   N/A
BURNS HARBOR               84     190/ 15/ 21 1013.9F
MICHIGAN CITY              81     150/ 12/ 16   N/A
MICHIGAN CITY 6N           76 67  200/  8/ 14   N/A           1/ 3
ST. JOSEPH                 74 66  230/  8/  8   N/A           1/ 2
$$

ILZ025>027-034>036-040-047-049-050-058-095>099-062100-
WEST-CENTRAL ILLINOIS

CITY           SKY/WX    TMP DP  RH WIND       PRES   REMARKS
QUINCY         PTSUNNY   87  74  64 S13       29.89F HX  95
GALESBURG*     CLOUDY    83  74  74 S12       29.89F HX  89
MACOMB*        CLOUDY    84  74  73 SW12      29.92F HX  91
JACKSONVILLE*  CLOUDY    87  76  69 SW7       29.92S HX  98
PITTSFIELD*    CLOUDY    86  75  69 S10G16    29.93F HX  94
$$

ILZ028>032-037-038-041>044-048-051>054-059>061-062100-
CENTRAL ILLINOIS

CITY           SKY/WX    TMP DP  RH WIND       PRES   REMARKS
PONTIAC        CLOUDY    86  78  75 S9G17     29.93S HX  99
BLOOMINGTON    CLOUDY    85  77  77 SW17      29.94F HX  95
DECATUR        PTSUNNY   85  74  69 S14G25    29.95F HX  92
PEORIA         CLOUDY    87  75  67 SW10      29.90F HX  96
LACON*         CLOUDY    83  75  76 S6        29.89F HX  91
LINCOLN*       CLOUDY    87  75  66 S7        29.92S HX  96
SPRINGFIELD    CLOUDY    88  76  67 S9        29.92F HX  99
TAYLORVILLE    PTSUNNY   82  75  78 S10       29.95F HX  89
$$

ILZ033-039-045-046-055>057-062-063-062100-
EAST-CENTRAL ILLINOIS

CITY           SKY/WX    TMP DP  RH WIND       PRES   REMARKS
CHAMPAIGN      PTSUNNY   86  73  65 S12G20    29.96F HX  93
DANVILLE*      PTSUNNY   84  74  70 SW10G16   29.95S HAZE    HX  91
RANTOUL*       PTSUNNY   87  74  66 S9G17     29.95F HX  95
MATTOON        MOSUNNY   84  73  69 S10       29.97F HX  90
PARIS*         MOSUNNY   84  72  66 S12       29.99F HX  90
$$

ILZ079-100>102-062100-
SOUTHWEST ILLINOIS

CITY           SKY/WX    TMP DP  RH WIND       PRES   REMARKS
ALTON          CLOUDY    73 N/A N/A SE12      29.97F
BELLEVILLE     PTSUNNY   85  77  76 VRB7      29.96R HX  95
CAHOKIA*       LGT RAIN  75  70  84 S7        29.96S
SPARTA*        PTSUNNY   85  74  71 S10       29.99F HX  92
$$

ILZ064>066-069>071-074>076-080>082-084>086-088>090-092>094-062100-
SOUTH-CENTRAL ILLINOIS

CITY           SKY/WX    TMP DP  RH WIND       PRES   REMARKS
CARBONDALE     PTSUNNY   85  73  67 SW15      30.00F HX  91
CAIRO*         MOSUNNY   84  75  74 S8        30.02F HX  91
EFFINGHAM*     PTSUNNY   85  70  60 S10G16    29.99F HX  90
MARION         PTSUNNY   84  75  74 SW12      30.01F HX  92
MT. VERNON     CLOUDY    86  73  66 S12       30.01S HX  93
CENTRALIA*     MOSUNNY   85  73  66 S10       29.99F HX  91
SALEM*         PTSUNNY   86  74  66 S10G16    29.99F HX  94
$$

ILZ067-068-072-073-078-083-087-091-062100-
SOUTHEAST ILLINOIS

CITY           SKY/WX    TMP DP  RH WIND       PRES   REMARKS
LAWRENCEVILLE  MOSUNNY   85  74  69 S14       30.00F HX  92
FLORA*         MOSUNNY   84  74  72 S12       30.00R HX  90
FAIRFIELD*     PTSUNNY   84  75  73 SW12      29.99S HX  92
HARRISBURG*    MOSUNNY   86  74  66 SW9       30.02S HX  93
ROBINSON*      MOSUNNY   86  72  61 SW7       30.00F HX  92
CARMI*         MOSUNNY   87  69  54 S10       30.00F HX  91
$$

ABBREVIATIONS USED IN REMARKS
   TC - TEMPERATURE IN CELSIUS
  WCI - WIND CHILL INDEX
   HX - HEAT INDEX
  VSB - VISIBILITY
$$




USA.gov is the U.S. government's official web portal to all federal, state and local government web resources and services.